Hourly Data Report for September 29, 2020

MUSKOKA
ONTARIO
Current Station Operator: NAVCAN

44°58'29.000" N
79°18'12.000" W
281.90 m
6115529
71532
YQA

Download Data

Hourly Data (September 2020)
Hourly Data Report for September 29, 2020
TIME
LST
Temp Definition
°C
Dew Point Definition
°C
Rel Hum Definition
%
Precip. Amount Definition
mm

Wind Dir Definition
10's deg

Wind Spd Definition
km/h
Visibility Definition
km
Stn Press Definition
kPa
Hmdx Definition


Wind Chill Definition


Weather Definition


00:00 13.8 13.3 97 6.5 26 17 4.8 96.98     Rain, Fog
01:00 13.4 12.9 97 3.0 28 13 3.6 97.00     Rain, Fog
02:00 13.0 12.1 94 1.0 27 13 16.1 97.11     Rain
03:00 12.7 11.9 95 0.0 24 8 16.1 97.13     LegendNANA
04:00 12.6 12.0 96 0.0 21 8 16.1 97.20     LegendNANA
05:00 11.9 11.3 96 0.2 20 9 16.1 97.26     LegendNANA
06:00 11.8 11.3 97 0.0 19 13 16.1 97.34     LegendNANA
07:00 11.5 10.7 95 0.0 19 13 16.1 97.38     LegendNANA
08:00 12.5 10.9 90 0.0 19 15 16.1 97.44     LegendNANA
09:00 13.2 11.1 87 0.0 19 17 16.1 97.47     LegendNANA
10:00 14.3 11.1 81 0.0 20 17 16.1 97.50     LegendNANA
11:00 14.9 10.6 75 0.0 24 15 16.1 97.49     LegendNANA
12:00 17.3 10.3 63 0.0 23 15 16.1 97.51     LegendNANA
13:00 15.5 10.3 71 0.0 26 8 16.1 97.48     LegendNANA
14:00 16.4 8.5 59 0.0 24 17 16.1 97.47     LegendNANA
15:00 16.0 8.3 60 0.0 26 13 16.1 97.38     LegendNANA
16:00 15.2 9.7 69 0.0 27 9 16.1 97.47     LegendNANA
17:00 14.0 8.0 67 0.0 25 9 16.1 97.49     LegendNANA
18:00 11.9 9.8 87 0.0 LegendMM 4 16.1 97.45     LegendNANA
19:00 11.1 10.2 94 0.0   0 16.1 97.45     LegendNANA
20:00 10.8 10.2 96 0.0   0 16.1 97.46     LegendNANA
21:00 10.3 9.9 97 0.0   0 16.1 97.39     LegendNANA
22:00 10.1 9.7 97 0.0 12 4 16.1 97.32     LegendNANA
23:00 10.7 9.8 94 0.0 LegendMM 4 16.1 97.19     LegendNANA

Notes on Data Quality.

Legend

  • E = Estimated
  • M = Missing
  • NA = Not Available*
  • [empty] = Indicates an unobserved value
Date modified: